Home > Weather > Pulheim > Past weeks

Flag for Germany Weather for the Past 2 Weeks in Pulheim, North Rhine-Westphalia, Germany

Now
46 °F

Partly sunny.


Feels Like: 43 °F
Forecast: 45 / 51 °F
Wind: 7 mph from Southwest

Location: Noervenich

Current Time: Feb 7, 2016 at 12:05:02 PM

Latest Report: Feb 7, 2016 at 11:20 AM


Visibility: N/A

Pressure: 29.56 "Hg

Humidity: 71%

Dew point: 37 °F

Location of PulheimLocation

Historic Weather in Pulheim — Graph

°F

Pulheim Temperature Yesterday

Maximum temperature yesterday: 52 °F (at 11:20 AM)
Minimum temperature yesterday: 45 °F (at 6:20 AM)
Average temperature yesterday: 49 °F

High & Low Weather Summary for the Past Weeks

 TemperatureHumidityPressure
High57 °F (Jan 25, 2:20 PM)100% (Jan 24, 5:20 PM)30.57 "Hg (Jan 24, 5:20 PM)
Low34 °F (Jan 29, 1:20 AM)51% (Jan 25, 4:20 PM)29.47 "Hg (Feb 7, 5:20 AM)
Average47 °F79%30.11 "Hg
* Reported Jan 23 10:20 AM — Feb 7 10:20 AM, Pulheim, Weather by CustomWeather, © 2016

Note: Actual official high and low records may vary slightly from our data, if they occured in-between our weather recording intervals... More about our weather records

Advertising

Pulheim Weather History for the Previous 24 Hours

 ConditionsComfort  
Time TempWeatherWind HumidityBarometerVisibility
10:20 AM
Sun, Feb 7
50 °FPartly sunny.8 mph71%29.53 "HgN/A
9:20 AM48 °FBroken clouds.6 mph87%29.50 "HgN/A
8:20 AM52 °FPartly sunny.8 mph67%29.47 "HgN/A
7:20 AM52 °FPassing clouds.8 mph67%29.47 "HgN/A
6:20 AM52 °FLight rain. Passing clouds.7 mph58%29.47 "HgN/A
5:20 AM52 °FPartly cloudy.7 mph58%29.47 "HgN/A
4:20 AM52 °FPassing clouds.7 mph58%29.50 "HgN/A
3:20 AM50 °FPassing clouds.6 mph67%29.50 "HgN/A
2:20 AM50 °FPassing clouds.8 mph67%29.53 "HgN/A
1:20 AM50 °FPassing clouds.7 mph67%29.56 "HgN/A
12:20 AM50 °FPassing clouds.9 mph67%29.56 "HgN/A
11:20 PM
Sat, Feb 6
52 °FPassing clouds.9 mph62%29.59 "HgN/A
10:20 PM52 °FPassing clouds.7 mph62%29.62 "HgN/A
9:20 PM50 °FPassing clouds.3 mph67%29.62 "HgN/A
8:20 PM50 °FPassing clouds.9 mph67%29.65 "HgN/A
7:20 PM46 °FPassing clouds.2 mph76%29.68 "HgN/A
6:20 PM48 °FPassing clouds.3 mph71%29.71 "HgN/A
5:20 PM50 °FPartly sunny.5 mph71%29.74 "HgN/A
4:20 PM52 °FPartly sunny.2 mph62%29.77 "HgN/A
3:20 PM52 °FPartly sunny.5 mph62%29.80 "HgN/A
2:20 PM52 °FPartly sunny.13 mph62%29.83 "HgN/A
1:20 PM52 °FPartly sunny.7 mph62%29.86 "HgN/A
12:20 PM52 °FPartly sunny.10 mph62%29.89 "HgN/A
Weather by CustomWeather, © 2016

See weather overviewHow to use our weather pages